Regional Weather Roundup
Issued by NWS

Home | Current Version | Previous Version | Text Only | Print | Product List | Glossary On
Versions: 1 2 3 4 5 6 7 8 9 10 11 12 13 14 15 16 17 18 19 20 21 22 23 24 25 26 27 28 29 30 31 32 33 34 35 36 37 38 39 40 41 42 43 44 45 46 47 48 49 50
000
ASUS43 KDMX 232006
RWRIA

WEATHER ROUNDUP FOR IOWA
NATIONAL WEATHER SERVICE DES MOINES IA
300 PM CDT MON APR 23 2018

NOTE: "FAIR" INDICATES FEW OR NO CLOUDS BELOW 12,000 FEET WITH NO
SIGNIFICANT WEATHER AND/OR OBSTRUCTIONS TO VISIBILITY.

* - THESE STATIONS ARE NOT NWS STATIONS...THUS NOT UNDER NWS
QUALITY CONTROL.  THEY ALSO DO NOT REPORT WEATHER SUCH
AS PRECIPITATION OR FOG.

IAZ001>003-012>014-020>022-031>034-043>046-232100-
   NORTHWEST IOWA

CITY           SKY/WX    TMP DP  RH WIND       PRES   REMARKS
CARROLL *      SUNNY     72  34  25 NE10G16   30.12F
CHEROKEE *     SUNNY     68  35  29 E7        30.15F
DENISON *      SUNNY     70  32  24 NE8       30.14F
LE MARS *      SUNNY     70  30  23 CALM      30.13F
ORANGE CITY *  SUNNY     70  36  28 CALM      30.15F
SHELDON *      SUNNY     66  32  28 SE7       30.14F
SIOUX CITY     SUNNY     72  29  20 SE9       30.12F
SPENCER        SUNNY     67  34  29 E7        30.16F
STORM LAKE *   SUNNY     66  36  32 NE8G18    30.15F
$$

IAZ055>058-069>071-079>083-090>094-232100-
   SOUTHWEST IOWA

CITY           SKY/WX    TMP DP  RH WIND       PRES   REMARKS
ATLANTIC *     SUNNY     70  28  21 VRB5G12   30.10F
AUDUBON *      SUNNY     72  25  17 NE6       30.13F
CLARINDA *     SUNNY     73  30  20 NE14      30.11F
COUNCIL BLFS * SUNNY     72  30  21 CALM      30.10F
CRESTON *      SUNNY     72  30  21 NE15      30.11F
HARLAN  *      SUNNY     72  28  20 E9        30.14F
LAMONI         SUNNY     72  35  25 NE15G21   30.08F
RED OAK *      SUNNY     72  32  23 N7G17     30.10F
SHENANDOAH *   SUNNY     73  30  20 E9G17     30.09F
$$

IAZ047>049-059>061-072>074-084-232100-
   CENTRAL IOWA

CITY           SKY/WX    TMP DP  RH WIND       PRES   REMARKS
AMES           SUNNY     71  32  23 E7        30.12F
ANKENY *       SUNNY     72  30  21 N8G15     30.12F
BOONE *        SUNNY     70  30  23 NE9       30.11F
CHARITON *     SUNNY     72  30  21 N16       30.08F
DES MOINES     MOSUNNY   72  30  21 NE14      30.11F
GRINNELL*      SUNNY     71  25  18 NE10G16   30.11F
KNOXVILLE *    SUNNY     70  25  18 E13G20    30.08F
MARSHALLTOWN   SUNNY     71  30  21 E15G24    30.10F
NEWTON *       SUNNY     70  28  21 E14       30.10F
PELLA *        SUNNY     73  25  17 N8        30.10F
PERRY *        FAIR      68  23  18 N7        30.11F
$$

IAZ004>006-015-016-023>025-035-036-232100-
   NORTH CENTRAL IOWA

CITY           SKY/WX    TMP DP  RH WIND       PRES   REMARKS
ALGONA *       SUNNY     64  39  39 NE10      30.17F
CLARION *      SUNNY     68  34  28 E9        30.15F
ESTHERVILLE    SUNNY     60  40  47 E7        30.17F
FORT DODGE *   SUNNY     68  34  28 VRB6      30.15F
MASON CITY     SUNNY     65  40  39 NE8       30.17F
FOREST CITY *  FAIR      64  36  34 NE6       30.17F
WEBSTER CITY * SUNNY     68  32  26 NE8G15    30.12F
IOWA FALLS *   FAIR      70  30  22 NE3G9     30.15F
$$

IAZ007>011-017>019-026>030-037>042-050>054-066-232100-
   NORTHEAST IOWA

CITY           SKY/WX    TMP DP  RH WIND       PRES   REMARKS
CEDAR RAPIDS   FAIR      72  25  17 E15       30.10F
CHARLES CITY * FAIR      66  32  28 E9G15     30.16F
CLINTON *      FAIR      71  32  23 NE16G22   30.09F
DECORAH *      FAIR      66  27  22 VRB5G13   30.14F
DUBUQUE        FAIR      67  24  19 NE13G18   30.12F
MONTICELLO *   FAIR      70  25  18 NE13G22   30.11F
OELWEIN *      FAIR      68  28  22 N8G15     30.13F
WATERLOO       FAIR      70  30  22 E7        30.12F
$$

IAZ064-065-067-068-078-232100-
   EAST CENTRAL IOWA

CITY           SKY/WX    TMP DP  RH WIND       PRES   REMARKS
DAVENPORT      FAIR      71  31  22 NE13      30.10F
IOWA CITY      FAIR      70  22  16 NE16      30.10F
MT. PLEASANT * PTSUNNY   70  28  21 NE12G22   30.07S
MUSCATINE *    FAIR      72  28  20 NE16      30.07F
QUAD CITIES    FAIR      74  33  22 NE15      30.06F
$$

IAZ062-063-075>077-085>089-095>099-232100-
   SOUTHEAST IOWA

CITY           SKY/WX    TMP DP  RH WIND       PRES   REMARKS
BURLINGTON     MOSUNNY   71  32  23 E12       30.04F
FAIRFIELD *    CLOUDY    68  25  19 NE14      30.08F
FORT MADISON * SUNNY     73  34  23 NE12G22   30.05F
KEOKUK *       MOSUNNY   72  32  23 NE8G20    30.03F
OSKALOOSA *    FAIR      72  24  16 E15       30.09F
CENTERVILLE *    N/A     73  28  19 N14       30.08F
OTTUMWA        PTSUNNY   70  26  19 NE14      30.08F
WASHINGTON *   PTSUNNY   70  23  17 NE14G21   30.09F
$$

ABBREVIATIONS USED IN REMARKS
   TC - TEMPERATURES IN CELSIUS
  WCI - WIND CHILL INDEX
   HX - HEAT INDEX
  VSB - VISIBILITY
$$





USA.gov is the U.S. government's official web portal to all federal, state and local government web resources and services.